| time (UTC) | temp F | wind direction | speed knots | gust knots | rain 1hr in | rain 24hr in | rain mn in | humidity % | barometer mb |
| 20260505170157 | 58 | 83 | 0.0 | 0.9 | 0.00 | 0.00 | 0.00 | 78 | 1016.0 |
| 20260505165657 | 58 | 49 | 0.9 | 1.7 | 0.00 | 0.00 | 0.00 | 78 | 1016.0 |
| 20260505165157 | 58 | 47 | 2.6 | 2.6 | 0.00 | 0.00 | 0.00 | 78 | 1016.0 |
| 20260505164657 | 58 | 36 | 0.9 | 1.7 | 0.00 | 0.00 | 0.00 | 77 | 1016.0 |
| 20260505164156 | 58 | 26 | 1.7 | 1.7 | 0.00 | 0.00 | 0.00 | 78 | 1016.0 |
| 20260505163657 | 57 | 1 | 0.9 | 0.9 | 0.00 | 0.00 | 0.00 | 78 | 1016.0 |
| 20260505163157 | 57 | 359 | 0.9 | 0.9 | 0.00 | 0.00 | 0.00 | 80 | 1016.0 |
| 20260505162656 | 57 | 16 | 2.6 | 2.6 | 0.00 | 0.00 | 0.00 | 79 | 1016.0 |
| 20260505162157 | 57 | 26 | 1.7 | 1.7 | 0.00 | 0.00 | 0.00 | 79 | 1016.0 |
| 20260505161657 | 56 | 13 | 1.7 | 1.7 | 0.00 | 0.00 | 0.00 | 80 | 1016.0 |
| 20260505161157 | 56 | 329 | 1.7 | 1.7 | 0.00 | 0.00 | 0.00 | 81 | 1016.0 |
| 20260505160656 | 56 | 340 | 1.7 | 2.6 | 0.00 | 0.00 | 0.00 | 80 | 1016.0 |
| 20260505160157 | 57 | 342 | 1.7 | 2.6 | 0.00 | 0.00 | 0.00 | 80 | 1016.0 |
| 20260505153156 | 56 | 345 | 0.9 | 1.7 | 0.00 | 0.00 | 0.00 | 81 | 1016.0 |
| 20260505152656 | 56 | 359 | 1.7 | 1.7 | 0.00 | 0.00 | 0.00 | 81 | 1016.0 |
| 20260505152158 | 56 | 21 | 0.0 | 0.9 | 0.00 | 0.00 | 0.00 | 82 | 1016.0 |
| 20260505151657 | 56 | 359 | 1.7 | 1.7 | 0.00 | 0.00 | 0.00 | 81 | 1016.0 |
| 20260505151156 | 56 | 349 | 0.9 | 1.7 | 0.00 | 0.00 | 0.00 | 82 | 1016.0 |
| 20260505150657 | 55 | 328 | 0.9 | 1.7 | 0.00 | 0.00 | 0.00 | 82 | 1016.0 |
| 20260505150158 | 55 | 13 | 0.9 | 0.9 | 0.00 | 0.00 | 0.00 | 83 | 1016.0 |
| 20260505140159 | 54 | 354 | 0.9 | 1.7 | 0.00 | 0.00 | 0.00 | 85 | 1016.0 |
| 20260505130157 | 54 | 355 | 0.9 | 1.7 | 0.00 | 0.00 | 0.00 | 85 | 1015.0 |
| 20260505124658 | 54 | 344 | 0.9 | 1.7 | 0.00 | 0.00 | 0.00 | 85 | 1015.0 |
| 20260505124156 | 54 | 6 | 1.7 | 1.7 | 0.00 | 0.00 | 0.00 | 86 | 1015.0 |
| 20260505123656 | 54 | 8 | 1.7 | 1.7 | 0.00 | 0.00 | 0.00 | 86 | 1015.0 |
| 20260505123157 | 54 | 328 | 0.9 | 1.7 | 0.00 | 0.00 | 0.00 | 86 | 1015.0 |
| 20260505122656 | 54 | 357 | 1.7 | 1.7 | 0.00 | 0.00 | 0.00 | 87 | 1015.0 |
| 20260505122157 | 54 | 353 | 0.9 | 1.7 | 0.00 | 0.00 | 0.00 | 87 | 1015.0 |
| 20260505121658 | 54 | 336 | 0.9 | 1.7 | 0.00 | 0.00 | 0.00 | 86 | 1015.0 |
| 20260505121157 | 54 | 354 | 0.9 | 1.7 | 0.00 | 0.00 | 0.00 | 86 | 1015.0 |
| 20260505120656 | 54 | 350 | 0.9 | 1.7 | 0.00 | 0.00 | 0.00 | 86 | 1015.0 |
| 20260505120156 | 54 | 13 | 0.0 | 0.9 | 0.00 | 0.00 | 0.00 | 86 | 1015.0 |
| 20260505115656 | 54 | 345 | 0.9 | 1.7 | 0.00 | 0.00 | 0.00 | 86 | 1015.0 |
| 20260505115202 | 54 | 336 | 0.9 | 1.7 | 0.00 | 0.00 | 0.00 | 86 | 1015.0 |
| 20260505114658 | 54 | 338 | 0.9 | 1.7 | 0.00 | 0.00 | 0.00 | 86 | 1015.0 |
| 20260505114156 | 54 | 354 | 0.9 | 1.7 | 0.00 | 0.00 | 0.00 | 86 | 1015.0 |
| 20260505113656 | 54 | 4 | 1.7 | 1.7 | 0.00 | 0.00 | 0.00 | 86 | 1015.0 |
| 20260505113157 | 54 | 3 | 0.9 | 1.7 | 0.00 | 0.00 | 0.00 | 86 | 1015.0 |
| 20260505112656 | 54 | 355 | 0.9 | 1.7 | 0.00 | 0.00 | 0.00 | 86 | 1015.0 |
| 20260505112157 | 54 | 353 | 0.9 | 1.7 | 0.00 | 0.00 | 0.00 | 86 | 1015.0 |
| 20260505111657 | 54 | 340 | 0.9 | 1.7 | 0.00 | 0.00 | 0.00 | 86 | 1015.0 |
| 20260505111159 | 54 | 338 | 0.9 | 1.7 | 0.00 | 0.00 | 0.00 | 85 | 1015.0 |
| 20260505110657 | 54 | 340 | 0.9 | 1.7 | 0.00 | 0.00 | 0.00 | 85 | 1015.0 |
| 20260505110157 | 54 | 336 | 0.9 | 1.7 | 0.00 | 0.00 | 0.00 | 86 | 1015.0 |
| 20260505102156 | 54 | 344 | 1.7 | 2.6 | 0.00 | 0.00 | 0.00 | 87 | 1015.0 |
| 20260505101657 | 54 | 355 | 0.9 | 1.7 | 0.00 | 0.00 | 0.00 | 87 | 1015.0 |
| 20260505101157 | 54 | 354 | 0.9 | 1.7 | 0.00 | 0.00 | 0.00 | 86 | 1015.0 |
| 20260505100656 | 54 | 309 | 0.9 | 1.7 | 0.00 | 0.00 | 0.00 | 86 | 1015.0 |
| 20260505100156 | 54 | 355 | 0.9 | 2.6 | 0.00 | 0.00 | 0.00 | 87 | 1015.0 |
| 20260505095656 | 54 | 339 | 1.7 | 1.7 | 0.00 | 0.00 | 0.00 | 86 | 1015.0 |
| 20260505095156 | 54 | 3 | 0.9 | 1.7 | 0.00 | 0.00 | 0.00 | 87 | 1015.0 |
| 20260505094656 | 54 | 343 | 0.9 | 1.7 | 0.00 | 0.00 | 0.00 | 86 | 1015.0 |
| 20260505094156 | 54 | 347 | 0.9 | 3.5 | 0.00 | 0.00 | 0.00 | 87 | 1015.0 |
| 20260505093656 | 54 | 354 | 0.9 | 1.7 | 0.00 | 0.00 | 0.00 | 87 | 1015.0 |
| 20260505093158 | 54 | 343 | 0.9 | 1.7 | 0.00 | 0.00 | 0.00 | 87 | 1015.0 |
| 20260505092658 | 54 | 346 | 0.9 | 1.7 | 0.00 | 0.00 | 0.00 | 86 | 1015.0 |
| 20260505092157 | 54 | 330 | 0.9 | 0.9 | 0.00 | 0.00 | 0.00 | 87 | 1015.0 |
| 20260505091656 | 54 | 0 | 1.7 | 1.7 | 0.00 | 0.00 | 0.00 | 87 | 1015.0 |
| 20260505091157 | 54 | 320 | 0.9 | 1.7 | 0.00 | 0.00 | 0.00 | 87 | 1015.0 |
| 20260505090657 | 54 | 347 | 0.9 | 1.7 | 0.00 | 0.00 | 0.00 | 87 | 1014.0 |
| 20260505090156 | 54 | 344 | 0.0 | 1.7 | 0.00 | 0.00 | 0.00 | 88 | 1014.0 |
| 20260505085657 | 54 | 342 | 0.9 | 1.7 | 0.00 | 0.00 | 0.00 | 88 | 1014.0 |
| 20260505085157 | 54 | 351 | 0.9 | 1.7 | 0.00 | 0.00 | 0.00 | 87 | 1014.0 |
| 20260505084657 | 54 | 346 | 0.9 | 1.7 | 0.00 | 0.00 | 0.00 | 87 | 1014.0 |
| 20260505084156 | 54 | 332 | 0.0 | 0.9 | 0.00 | 0.00 | 0.00 | 87 | 1014.0 |
| 20260505083657 | 54 | 327 | 0.9 | 1.7 | 0.00 | 0.00 | 0.00 | 88 | 1014.0 |
| 20260505083156 | 54 | 48 | 0.9 | 1.7 | 0.00 | 0.00 | 0.00 | 87 | 1015.0 |
| 20260505082208 | 54 | 89 | 0.0 | 1.7 | 0.00 | 0.00 | 0.00 | 88 | 1015.0 |
| 20260505081658 | 54 | 7 | 0.9 | 0.9 | 0.00 | 0.00 | 0.00 | 88 | 1014.0 |
| 20260505081157 | 54 | 346 | 1.7 | 1.7 | 0.00 | 0.00 | 0.00 | 88 | 1014.0 |
| 20260505080656 | 54 | 349 | 0.9 | 1.7 | 0.00 | 0.00 | 0.00 | 88 | 1014.0 |
| 20260505080158 | 54 | 345 | 1.7 | 1.7 | 0.00 | 0.00 | 0.00 | 88 | 1015.0 |
| 20260505075657 | 54 | 0 | 0.9 | 1.7 | 0.00 | 0.00 | 0.00 | 88 | 1015.0 |
| 20260505075156 | 54 | 342 | 0.9 | 1.7 | 0.00 | 0.00 | 0.00 | 89 | 1014.0 |
| 20260505074656 | 53 | 321 | 0.9 | 1.7 | 0.00 | 0.00 | 0.00 | 89 | 1014.0 |
| 20260505074156 | 53 | 325 | 0.9 | 2.6 | 0.00 | 0.00 | 0.00 | 89 | 1014.0 |
| 20260505073657 | 53 | 345 | 0.9 | 1.7 | 0.00 | 0.00 | 0.00 | 89 | 1014.0 |
| 20260505073156 | 53 | 345 | 0.9 | 1.7 | 0.00 | 0.00 | 0.00 | 89 | 1014.0 |
| 20260505072656 | 53 | 320 | 0.9 | 1.7 | 0.00 | 0.00 | 0.00 | 89 | 1014.0 |
| 20260505072157 | 53 | 334 | 0.9 | 1.7 | 0.00 | 0.00 | 0.00 | 89 | 1014.0 |
| 20260505071656 | 53 | 336 | 1.7 | 3.5 | 0.00 | 0.00 | 0.00 | 89 | 1014.0 |
| 20260505071156 | 53 | 324 | 0.9 | 1.7 | 0.00 | 0.00 | 0.00 | 89 | 1014.0 |
| 20260505070656 | 53 | 320 | 1.7 | 5.2 | 0.00 | 0.00 | 0.00 | 89 | 1014.0 |
| 20260505070158 | 53 | 345 | 0.9 | 1.7 | 0.00 | 0.00 | 0.00 | 89 | 1014.0 |
| 20260505065656 | 53 | 289 | 1.7 | 3.5 | 0.00 | 0.00 | 0.00 | 89 | 1014.0 |
| 20260505065159 | 53 | 335 | 0.9 | 1.7 | 0.00 | 0.00 | 0.00 | 89 | 1014.0 |
| 20260505064656 | 53 | 311 | 1.7 | 3.5 | 0.00 | 0.00 | 0.00 | 89 | 1014.0 |
| 20260505064156 | 53 | 319 | 0.9 | 1.7 | 0.00 | 0.00 | 0.00 | 89 | 1014.0 |
| 20260505063658 | 53 | 319 | 1.7 | 3.5 | 0.00 | 0.00 | 0.00 | 89 | 1014.0 |
| 20260505063157 | 53 | 349 | 0.9 | 1.7 | 0.00 | 0.00 | 0.00 | 89 | 1014.0 |
| 20260505062656 | 53 | 332 | 0.9 | 1.7 | 0.00 | 0.00 | 0.00 | 89 | 1014.0 |
| 20260505062157 | 53 | 303 | 1.7 | 4.3 | 0.00 | 0.00 | 0.00 | 89 | 1014.0 |
| 20260505061657 | 53 | 319 | 1.7 | 3.5 | 0.00 | 0.00 | 0.00 | 89 | 1014.0 |
| 20260505061157 | 53 | 304 | 0.9 | 1.7 | 0.00 | 0.00 | 0.00 | 89 | 1014.0 |
| 20260505060656 | 53 | 335 | 0.9 | 1.7 | 0.00 | 0.00 | 0.00 | 88 | 1014.0 |
| 20260505060156 | 53 | 305 | 0.9 | 1.7 | 0.00 | 0.00 | 0.00 | 88 | 1014.0 |
| 20260505055656 | 53 | 328 | 0.9 | 1.7 | 0.00 | 0.00 | 0.00 | 88 | 1014.0 |
| 20260505055156 | 54 | 321 | 0.9 | 1.7 | 0.00 | 0.00 | 0.00 | 88 | 1014.0 |
| 20260505054657 | 54 | 337 | 0.9 | 1.7 | 0.00 | 0.00 | 0.00 | 87 | 1014.0 |
| 20260505054157 | 54 | 259 | 1.7 | 2.6 | 0.00 | 0.00 | 0.00 | 87 | 1014.0 |
| 20260505053656 | 54 | 299 | 1.7 | 2.6 | 0.00 | 0.00 | 0.00 | 87 | 1014.0 |
| 20260505053156 | 54 | 298 | 0.9 | 3.5 | 0.00 | 0.00 | 0.00 | 87 | 1014.0 |
| 20260505052656 | 54 | 316 | 0.9 | 1.7 | 0.00 | 0.00 | 0.00 | 87 | 1014.0 |
| 20260505052156 | 54 | 300 | 0.9 | 1.7 | 0.00 | 0.00 | 0.00 | 87 | 1014.0 |
| 20260505051656 | 54 | 277 | 1.7 | 3.5 | 0.00 | 0.00 | 0.00 | 86 | 1014.0 |
| 20260505051156 | 54 | 283 | 2.6 | 5.2 | 0.00 | 0.00 | 0.00 | 86 | 1014.0 |
| 20260505050657 | 54 | 286 | 1.7 | 5.2 | 0.00 | 0.00 | 0.00 | 86 | 1014.0 |
| 20260505050157 | 54 | 259 | 2.6 | 6.1 | 0.00 | 0.00 | 0.00 | 86 | 1014.0 |
| 20260505041657 | 55 | 280 | 1.7 | 4.3 | 0.00 | 0.00 | 0.00 | 84 | 1013.0 |
| 20260505041157 | 55 | 282 | 1.7 | 2.6 | 0.00 | 0.00 | 0.00 | 84 | 1013.0 |
| 20260505040656 | 55 | 282 | 1.7 | 3.5 | 0.00 | 0.00 | 0.00 | 84 | 1013.0 |
| 20260505040156 | 55 | 271 | 1.7 | 3.5 | 0.00 | 0.00 | 0.00 | 84 | 1013.0 |
| 20260505035656 | 56 | 293 | 3.5 | 7.8 | 0.00 | 0.00 | 0.00 | 83 | 1013.0 |
| 20260505035156 | 56 | 275 | 3.5 | 7.8 | 0.00 | 0.00 | 0.00 | 83 | 1013.0 |
| 20260505034656 | 56 | 301 | 3.5 | 7.8 | 0.00 | 0.00 | 0.00 | 83 | 1013.0 |
| 20260505034156 | 56 | 326 | 0.9 | 3.5 | 0.00 | 0.00 | 0.00 | 83 | 1013.0 |
| 20260505033656 | 56 | 309 | 3.5 | 5.2 | 0.00 | 0.00 | 0.00 | 82 | 1013.0 |
| 20260505033156 | 56 | 300 | 2.6 | 4.3 | 0.00 | 0.00 | 0.00 | 82 | 1013.0 |
| 20260505032656 | 56 | 289 | 1.7 | 5.2 | 0.00 | 0.00 | 0.00 | 82 | 1012.0 |
| 20260505032156 | 57 | 325 | 1.7 | 2.6 | 0.00 | 0.00 | 0.00 | 82 | 1012.0 |
| 20260505031656 | 57 | 338 | 1.7 | 6.1 | 0.00 | 0.00 | 0.00 | 82 | 1012.0 |
| 20260505031156 | 57 | 272 | 1.7 | 5.2 | 0.00 | 0.00 | 0.00 | 81 | 1012.0 |
| 20260505030657 | 58 | 247 | 0.9 | 1.7 | 0.00 | 0.00 | 0.00 | 81 | 1012.0 |
| 20260505030158 | 58 | 296 | 1.7 | 4.3 | 0.00 | 0.00 | 0.00 | 80 | 1012.0 |
| 20260505025656 | 58 | 294 | 1.7 | 5.2 | 0.00 | 0.00 | 0.00 | 80 | 1012.0 |
| 20260505025158 | 59 | 302 | 1.7 | 2.6 | 0.00 | 0.00 | 0.00 | 79 | 1012.0 |
| 20260505024658 | 59 | 303 | 1.7 | 4.3 | 0.00 | 0.00 | 0.00 | 78 | 1012.0 |
| 20260505024159 | 59 | 288 | 1.7 | 4.3 | 0.00 | 0.00 | 0.00 | 78 | 1012.0 |
| 20260505023657 | 60 | 300 | 0.9 | 2.6 | 0.00 | 0.00 | 0.00 | 77 | 1012.0 |
| 20260505023158 | 61 | 278 | 1.7 | 6.1 | 0.00 | 0.00 | 0.00 | 76 | 1012.0 |
| 20260505022658 | 61 | 312 | 2.6 | 5.2 | 0.00 | 0.00 | 0.00 | 74 | 1012.0 |
| 20260505022158 | 61 | 313 | 1.7 | 5.2 | 0.00 | 0.00 | 0.00 | 74 | 1012.0 |
| 20260505021658 | 61 | 282 | 1.7 | 2.6 | 0.00 | 0.00 | 0.00 | 74 | 1012.0 |
| 20260505021158 | 62 | 301 | 1.7 | 6.1 | 0.00 | 0.00 | 0.00 | 74 | 1012.0 |
| 20260505020658 | 62 | 311 | 2.6 | 3.5 | 0.00 | 0.00 | 0.00 | 74 | 1012.0 |
| 20260505020157 | 62 | 267 | 3.5 | 7.0 | 0.00 | 0.00 | 0.00 | 72 | 1012.0 |
| 20260505015656 | 62 | 306 | 2.6 | 7.0 | 0.00 | 0.00 | 0.00 | 73 | 1012.0 |
| 20260505015156 | 63 | 328 | 2.6 | 7.0 | 0.00 | 0.00 | 0.00 | 73 | 1012.0 |
| 20260505014656 | 63 | 288 | 1.7 | 3.5 | 0.00 | 0.00 | 0.00 | 72 | 1012.0 |
| 20260505014156 | 63 | 323 | 3.5 | 6.1 | 0.00 | 0.00 | 0.00 | 73 | 1012.0 |
| 20260505013656 | 63 | 307 | 3.5 | 6.1 | 0.00 | 0.00 | 0.00 | 73 | 1012.0 |
| 20260505013157 | 64 | 318 | 3.5 | 7.8 | 0.00 | 0.00 | 0.00 | 72 | 1012.0 |
| 20260505012656 | 64 | 313 | 4.3 | 9.6 | 0.00 | 0.00 | 0.00 | 71 | 1012.0 |
| 20260505012157 | 64 | 310 | 4.3 | 8.7 | 0.00 | 0.00 | 0.00 | 72 | 1012.0 |
| 20260505011656 | 64 | 291 | 5.2 | 8.7 | 0.00 | 0.00 | 0.00 | 71 | 1012.0 |
| 20260505011156 | 65 | 308 | 1.7 | 5.2 | 0.00 | 0.00 | 0.00 | 70 | 1012.0 |
| 20260505010656 | 65 | 319 | 2.6 | 7.8 | 0.00 | 0.00 | 0.00 | 70 | 1012.0 |
| 20260505010158 | 66 | 314 | 2.6 | 6.1 | 0.00 | 0.00 | 0.00 | 69 | 1012.0 |
| 20260505005658 | 67 | 308 | 1.7 | 7.8 | 0.00 | 0.00 | 0.00 | 68 | 1012.0 |
| 20260505005156 | 67 | 322 | 3.5 | 6.1 | 0.00 | 0.00 | 0.00 | 68 | 1012.0 |
| 20260505004657 | 68 | 330 | 3.5 | 7.0 | 0.00 | 0.00 | 0.00 | 66 | 1012.0 |
| 20260505004156 | 68 | 290 | 0.9 | 3.5 | 0.00 | 0.00 | 0.00 | 65 | 1012.0 |
| 20260505003656 | 69 | 270 | 1.7 | 2.6 | 0.00 | 0.00 | 0.00 | 64 | 1012.0 |
| 20260505003158 | 69 | 310 | 1.7 | 3.5 | 0.00 | 0.00 | 0.00 | 65 | 1012.0 |
| 20260505002657 | 68 | 317 | 0.9 | 2.6 | 0.00 | 0.00 | 0.00 | 65 | 1012.0 |
| 20260505002156 | 68 | 322 | 3.5 | 7.8 | 0.00 | 0.00 | 0.00 | 66 | 1012.0 |
| 20260505001656 | 69 | 282 | 4.3 | 7.8 | 0.00 | 0.00 | 0.00 | 64 | 1012.0 |
| 20260505001156 | 69 | 308 | 4.3 | 7.0 | 0.00 | 0.00 | 0.00 | 64 | 1012.0 |
| 20260505000658 | 69 | 334 | 1.7 | 3.5 | 0.00 | 0.00 | 0.00 | 65 | 1012.0 |
| 20260505000157 | 69 | 290 | 4.3 | 7.8 | 0.00 | 0.00 | 0.00 | 64 | 1012.0 |
| 20260504235656 | 69 | 316 | 1.7 | 3.5 | 0.00 | 0.00 | 0.00 | 64 | 1012.0 |
| 20260504235156 | 69 | 336 | 4.3 | 6.1 | 0.00 | 0.00 | 0.00 | 65 | 1012.0 |
| 20260504234657 | 70 | 323 | 4.3 | 10.4 | 0.00 | 0.00 | 0.00 | 63 | 1012.0 |
| 20260504234156 | 71 | 268 | 5.2 | 7.8 | 0.00 | 0.00 | 0.00 | 63 | 1012.0 |
| 20260504233656 | 71 | 309 | 1.7 | 2.6 | 0.00 | 0.00 | 0.00 | 63 | 1012.0 |
| 20260504233156 | 72 | 319 | 3.5 | 5.2 | 0.00 | 0.00 | 0.00 | 61 | 1012.0 |
| 20260504232656 | 71 | 319 | 1.7 | 3.5 | 0.00 | 0.00 | 0.00 | 61 | 1012.0 |
| 20260504232156 | 71 | 281 | 2.6 | 5.2 | 0.00 | 0.00 | 0.00 | 62 | 1012.0 |
| 20260504231657 | 71 | 303 | 0.9 | 2.6 | 0.00 | 0.00 | 0.00 | 62 | 1012.0 |
| 20260504231156 | 71 | 313 | 3.5 | 7.0 | 0.00 | 0.00 | 0.00 | 63 | 1012.0 |
| 20260504230656 | 71 | 299 | 4.3 | 8.7 | 0.00 | 0.00 | 0.00 | 62 | 1012.0 |
| 20260504230156 | 71 | 320 | 3.5 | 6.1 | 0.00 | 0.00 | 0.00 | 62 | 1012.0 |
| 20260504225656 | 71 | 294 | 1.7 | 7.0 | 0.00 | 0.00 | 0.00 | 61 | 1012.0 |
| 20260504225156 | 72 | 264 | 2.6 | 5.2 | 0.00 | 0.00 | 0.00 | 61 | 1012.0 |
| 20260504224656 | 72 | 233 | 1.7 | 3.5 | 0.00 | 0.00 | 0.00 | 62 | 1012.0 |
| 20260504224156 | 73 | 207 | 0.9 | 2.6 | 0.00 | 0.00 | 0.00 | 61 | 1012.0 |
| 20260504223657 | 73 | 258 | 0.9 | 1.7 | 0.00 | 0.00 | 0.00 | 59 | 1012.0 |
| 20260504223156 | 72 | 254 | 1.7 | 2.6 | 0.00 | 0.00 | 0.00 | 60 | 1013.0 |
| 20260504222656 | 72 | 286 | 1.7 | 3.5 | 0.00 | 0.00 | 0.00 | 60 | 1013.0 |
| 20260504222156 | 72 | 242 | 1.7 | 3.5 | 0.00 | 0.00 | 0.00 | 60 | 1013.0 |
| 20260504221656 | 72 | 237 | 1.7 | 2.6 | 0.00 | 0.00 | 0.00 | 61 | 1013.0 |
| 20260504221156 | 72 | 324 | 3.5 | 5.2 | 0.00 | 0.00 | 0.00 | 60 | 1013.0 |
| 20260504220656 | 73 | 321 | 4.3 | 6.1 | 0.00 | 0.00 | 0.00 | 60 | 1013.0 |
| 20260504220157 | 73 | 328 | 1.7 | 3.5 | 0.00 | 0.00 | 0.00 | 59 | 1013.0 |
| 20260504215657 | 73 | 255 | 1.7 | 3.5 | 0.00 | 0.00 | 0.00 | 59 | 1013.0 |
| 20260504215156 | 72 | 317 | 0.9 | 3.5 | 0.00 | 0.00 | 0.00 | 59 | 1013.0 |
| 20260504214657 | 71 | 267 | 0.9 | 1.7 | 0.00 | 0.00 | 0.00 | 62 | 1013.0 |
| 20260504214157 | 71 | 7 | 1.7 | 3.5 | 0.00 | 0.00 | 0.00 | 60 | 1013.0 |
| 20260504213656 | 72 | 331 | 1.7 | 4.3 | 0.00 | 0.00 | 0.00 | 60 | 1013.0 |
| 20260504213156 | 72 | 333 | 0.9 | 2.6 | 0.00 | 0.00 | 0.00 | 60 | 1013.0 |
| 20260504212657 | 71 | 191 | 1.7 | 2.6 | 0.00 | 0.00 | 0.00 | 60 | 1013.0 |
| 20260504212156 | 70 | 257 | 1.7 | 2.6 | 0.00 | 0.00 | 0.00 | 63 | 1013.0 |
| 20260504211656 | 70 | 305 | 2.6 | 7.0 | 0.00 | 0.00 | 0.00 | 64 | 1013.0 |
| 20260504211156 | 71 | 34 | 0.0 | 1.7 | 0.00 | 0.00 | 0.00 | 62 | 1013.0 |
| 20260504210657 | 70 | 29 | 2.6 | 5.2 | 0.00 | 0.00 | 0.00 | 62 | 1013.0 |
| 20260504210156 | 69 | 22 | 1.7 | 3.5 | 0.00 | 0.00 | 0.00 | 62 | 1013.0 |
| 20260504205656 | 68 | 156 | 0.9 | 2.6 | 0.00 | 0.00 | 0.00 | 64 | 1013.0 |
| 20260504205156 | 68 | 192 | 1.7 | 4.3 | 0.00 | 0.00 | 0.00 | 66 | 1013.0 |
| 20260504204657 | 67 | 168 | 4.3 | 7.0 | 0.00 | 0.00 | 0.00 | 65 | 1013.0 |
| 20260504204157 | 67 | 157 | 2.6 | 3.5 | 0.00 | 0.00 | 0.00 | 67 | 1013.0 |
| 20260504203656 | 67 | 164 | 3.5 | 6.1 | 0.00 | 0.00 | 0.00 | 66 | 1013.0 |
| 20260504203156 | 67 | 169 | 4.3 | 6.1 | 0.00 | 0.00 | 0.00 | 66 | 1013.0 |
| 20260504202657 | 67 | 337 | 2.6 | 3.5 | 0.00 | 0.00 | 0.00 | 66 | 1014.0 |
| 20260504202156 | 67 | 237 | 1.7 | 2.6 | 0.00 | 0.00 | 0.00 | 65 | 1014.0 |
| 20260504201656 | 67 | 174 | 1.7 | 3.5 | 0.00 | 0.00 | 0.00 | 66 | 1014.0 |
| 20260504201156 | 66 | 359 | 0.9 | 1.7 | 0.00 | 0.00 | 0.00 | 68 | 1014.0 |
| 20260504200656 | 66 | 10 | 3.5 | 4.3 | 0.00 | 0.00 | 0.00 | 67 | 1014.0 |
| 20260504200156 | 66 | 152 | 0.9 | 1.7 | 0.00 | 0.00 | 0.00 | 67 | 1014.0 |
| 20260504195657 | 66 | 354 | 0.9 | 4.3 | 0.00 | 0.00 | 0.00 | 67 | 1014.0 |
| 20260504195156 | 66 | 242 | 1.7 | 2.6 | 0.00 | 0.00 | 0.00 | 67 | 1014.0 |
| 20260504194656 | 65 | 210 | 1.7 | 3.5 | 0.00 | 0.00 | 0.00 | 69 | 1014.0 |
| 20260504194158 | 65 | 10 | 2.6 | 3.5 | 0.00 | 0.00 | 0.00 | 69 | 1014.0 |
| 20260504193656 | 65 | 194 | 1.7 | 2.6 | 0.00 | 0.00 | 0.00 | 68 | 1014.0 |
| 20260504193157 | 64 | 357 | 3.5 | 5.2 | 0.00 | 0.00 | 0.00 | 70 | 1014.0 |
| 20260504192657 | 64 | 168 | 1.7 | 2.6 | 0.00 | 0.00 | 0.00 | 70 | 1014.0 |
| 20260504192156 | 63 | 340 | 2.6 | 3.5 | 0.00 | 0.00 | 0.00 | 72 | 1014.0 |
| 20260504191657 | 63 | 162 | 0.9 | 3.5 | 0.00 | 0.00 | 0.00 | 72 | 1014.0 |
| 20260504191156 | 63 | 321 | 0.9 | 1.7 | 0.00 | 0.00 | 0.00 | 72 | 1014.0 |
| 20260504190656 | 62 | 117 | 1.7 | 2.6 | 0.00 | 0.00 | 0.00 | 73 | 1014.0 |
| 20260504190156 | 62 | 350 | 1.7 | 4.3 | 0.00 | 0.00 | 0.00 | 73 | 1014.0 |
| 20260504185658 | 61 | 309 | 0.9 | 2.6 | 0.00 | 0.00 | 0.00 | 75 | 1014.0 |
| 20260504185200 | 62 | 162 | 1.7 | 3.5 | 0.00 | 0.00 | 0.00 | 74 | 1014.0 |
| 20260504184656 | 61 | 102 | 1.7 | 2.6 | 0.00 | 0.00 | 0.00 | 75 | 1014.0 |
| 20260504183830 | 60 | 172 | 1.7 | 2.6 | 0.00 | 0.00 | 0.00 | 76 | 1014.0 |
| 20260504183156 | 60 | 166 | 3.5 | 5.2 | 0.00 | 0.00 | 0.00 | 76 | 1014.0 |
| 20260504182656 | 60 | 131 | 1.7 | 3.5 | 0.00 | 0.00 | 0.00 | 76 | 1014.0 |
| 20260504182157 | 60 | 19 | 0.9 | 0.9 | 0.00 | 0.00 | 0.00 | 76 | 1014.0 |
| 20260504181657 | 60 | 329 | 1.7 | 1.7 | 0.00 | 0.00 | 0.00 | 77 | 1014.0 |
| 20260504181156 | 59 | 219 | 0.0 | 0.9 | 0.00 | 0.00 | 0.00 | 78 | 1014.0 |
| 20260504180657 | 59 | 128 | 1.7 | 3.5 | 0.00 | 0.00 | 0.00 | 78 | 1014.0 |
| 20260504180157 | 59 | 347 | 0.9 | 1.7 | 0.00 | 0.00 | 0.00 | 78 | 1014.0 |
| 20260504175657 | 59 | 235 | 1.7 | 2.6 | 0.00 | 0.00 | 0.00 | 77 | 1014.0 |
| 20260504175158 | 59 | 162 | 2.6 | 3.5 | 0.00 | 0.00 | 0.00 | 78 | 1014.0 |
| 20260504174656 | 59 | 105 | 1.7 | 1.7 | 0.00 | 0.00 | 0.00 | 79 | 1014.0 |
| 20260504174156 | 58 | 111 | 0.9 | 1.7 | 0.00 | 0.00 | 0.00 | 79 | 1014.0 |
| 20260504173657 | 58 | 59 | 1.7 | 2.6 | 0.00 | 0.00 | 0.00 | 79 | 1014.0 |
| 20260504173157 | 58 | 158 | 1.7 | 2.6 | 0.00 | 0.00 | 0.00 | 79 | 1014.0 |
| 20260504172657 | 58 | 46 | 1.7 | 1.7 | 0.00 | 0.00 | 0.00 | 80 | 1014.0 |
| 20260504172156 | 58 | 343 | 0.9 | 1.7 | 0.00 | 0.00 | 0.00 | 80 | 1014.0 |
| 20260504171657 | 57 | 344 | 0.0 | 0.9 | 0.00 | 0.00 | 0.00 | 81 | 1014.0 |
| 20260504171200 | 57 | 74 | 0.9 | 0.9 | 0.00 | 0.00 | 0.00 | 81 | 1014.0 |
| 20260504170657 | 57 | 157 | 0.9 | 0.9 | 0.00 | 0.00 | 0.00 | 81 | 1014.0 |